IRIDIUM 180

Last updated on Tue Sep 22 2026 00:03:21 GMT+0000 (Coordinated Universal Time)

1 43922U 19002A 26264.41651586 .00000031 00000+0 39691-5 0 9994 2 43922 86.3970 313.3941 0002268 95.2351 264.9103 14.34217711402789
UTC large
Height (km)
Speed (km/s)
/
Latitude / Longitude
Inclination (degrees)
Orbital Period (minutes)
Azimuth
Elevation
Range (km)
Doppler Factor

Next 0 passes for location: London (51.5072 / 0.1276)

No passes found over London.
IRIDIUM 180